Regional Weather Roundup
Issued by NWS

Home | Current Version | Previous Version | Graphics & Text | Print | Product List | Glossary Off
Versions: 1 2 3 4 5 6 7 8 9 10 11 12 13 14 15 16 17 18 19 20 21 22 23 24 25 26 27 28 29 30 31 32 33 34 35 36 37 38 39 40 41 42 43 44 45 46 47 48 49 50

000
ASUS43 KTOP 260208
RWRKS

WEATHER ROUNDUP FOR KANSAS
NATIONAL WEATHER SERVICE GOODLAND KS
800 PM CST SUN JAN 25 2015

NOTE:  "FAIR" INDICATES FEW OR NO CLOUDS BELOW 12,000 FEET WITH NO
SIGNIFICANT WEATHER AND/OR OBSTRUCTIONS TO VISIBILITY.

KSZ001>006-013>018-027>032-041>047-260300-
NORTHWEST KANSAS

CITY           SKY/WX    TMP DP  RH WIND       PRES   REMARKS
GOODLAND       PTCLDY    35  29  78 W6        30.13S
HAYS           CLEAR     34  18  51 CALM      30.11S
HILL CITY      CLEAR     28  18  66 SW3       30.10F
RUSSELL        CLEAR     37  25  61 E7        30.10F
$$

KSZ061>065-074>080-084>089-260300-
SOUTHWEST KANSAS

CITY           SKY/WX    TMP DP  RH WIND       PRES   REMARKS
DODGE CITY     PTCLDY    37  18  46 NE5       30.13S
ELKHART          N/A     46  28  49 CALM        N/A
GARDEN CITY    PTCLDY    38  21  50 CALM      30.13R
GREAT BEND     CLEAR     34  19  55 CALM      30.13S
LIBERAL        CLEAR     41  25  52 N8        30.17S
PRATT          CLEAR     36  27  69 NW5       30.14S
$$

KSZ066>073-081>083-090>101-260300-
SOUTHEAST KANSAS

CITY           SKY/WX    TMP DP  RH WIND       PRES   REMARKS
CHANUTE        CLOUDY    41  31  67 N10       30.12S
COFFEYVILLE    CLOUDY    42  31  64 N13       30.12R
HUTCHINSON     CLEAR     38  28  67 N6        30.14R
MEDICINE LODGE   N/A     41  25  53 N5        30.13R
NEWTON         CLEAR     36  25  64 N7        30.15R
PARSONS        CLOUDY    42  32  67 N10       30.12R
WICHITA INTL   PTCLDY    42  29  59 N7        30.14R
WICHITA JABRA  PTCLDY    33  27  78 N8        30.13R
WICHITA MCCONL PTCLDY    38  29  70 N9        30.14R
WINFIELD       CLEAR     38  29  70 N8        30.14R
$$

KSZ007>012-019>026-033>040-048>060-102>105-260300-
NORTHEAST KANSAS

CITY           SKY/WX    TMP DP  RH WIND       PRES   REMARKS
CONCORDIA      CLEAR     36  30  79 CALM      30.10F
EMPORIA        MOCLDY    34  28  79 N8        30.12R
LAWRENCE       CLEAR     31  27  85 NW6       30.10F
MANHATTAN      CLOUDY    37  30  75 CALM      30.13R
MARYSVILLE     PTCLDY    34  30  86 W3        30.10F
OLATHE IND     CLOUDY    37  30  75 N9        30.09F
OLATHE EXE     CLOUDY    37  30  75 N10G21    30.08S WCI  30
SALINA         CLEAR     34  27  75 NW3       30.13F
TOPEKA BILLARD CLOUDY    40  30  67 NW8       30.12R
TOPEKA FORBES  CLOUDY    41  30  65 NW10      30.10S
$$


USA.gov is the U.S. government's official web portal to all federal, state and local government web resources and services.